Simultaneous Nadir Overpasses (SNOs) Predictions

Prediction of SNOs between METOP-A and TERRA Satellite Orbit:

Table of predicted SNOs for the next 14.0 days since TLE Epoch: 8/29/2015
Index Date (METOP-A) Time (METOP-A) Lat,Lon (METOP-A) SZA (METOP-A ) Date (TERRA) Time (TERRA) Lat,Lon (TERRA) SZA (TERRA ) Distance(km) Time Diff (sec)
1 08/31/2015 18:32:10 81.36, -49.87 75.71 08/31/2015 18:32:21 81.35, -49.83 75.72 0.82 11
2 08/31/2015 19:22:49 -81.36, 118.24 104.19 08/31/2015 19:21:47 -81.37, 118.10 104.23 2.29 62
3 09/03/2015 14:06:30 81.36, 16.56 76.76 09/03/2015 14:06:32 81.35, 16.65 76.76 1.46 2
4 09/03/2015 14:57:09 -81.36,-175.32 103.14 09/03/2015 14:55:58 -81.37,-175.40 103.18 1.48 71
5 09/06/2015 08:50:11 -81.35, -84.58 102.23 09/06/2015 08:51:18 -81.34, -84.68 102.21 1.89 67
6 09/06/2015 09:40:50 81.36, 83.35 77.86 09/06/2015 09:40:43 81.37, 83.39 77.87 1.11 7
7 09/09/2015 04:24:32 -81.35, -18.22 101.16 09/09/2015 04:25:29 -81.36, -18.03 101.11 3.08 57
8 09/09/2015 05:15:11 81.36, 149.71 78.93 09/09/2015 05:14:55 81.36, 149.64 78.91 1.23 16
9 09/11/2015 23:58:52 -81.36, 48.51 100.03 09/11/2015 23:59:40 -81.36, 48.50 100.01 0.37 48




NCC Satellite Simultaneous Nadir Overpasses (SNOs) Prediction Service
